Year,Month,Day,Hour,Minute,Value (Times are PST for temperature in C)
2019,09,18,00,00,13.60
2019,09,18,00,01,13.60
2019,09,18,00,02,13.60
2019,09,18,00,03,13.60
2019,09,18,00,04,13.60
2019,09,18,00,05,13.60
2019,09,18,00,06,13.60
2019,09,18,00,07,13.60
2019,09,18,00,08,13.60
2019,09,18,00,09,13.60
2019,09,18,00,10,13.70
2019,09,18,00,11,13.70
2019,09,18,00,12,13.70
2019,09,18,00,13,13.60
2019,09,18,00,14,13.60
2019,09,18,00,15,13.60
2019,09,18,00,16,13.60
2019,09,18,00,17,13.60
2019,09,18,00,18,13.60
2019,09,18,00,19,13.60
2019,09,18,00,20,13.60
2019,09,18,00,21,13.60
2019,09,18,00,22,13.60
2019,09,18,00,23,13.60
2019,09,18,00,24,13.60
2019,09,18,00,25,13.60
2019,09,18,00,26,13.60
2019,09,18,00,27,13.60
2019,09,18,00,28,13.60
2019,09,18,00,29,13.60
2019,09,18,00,30,13.60
2019,09,18,00,31,13.60
2019,09,18,00,32,13.60
2019,09,18,00,33,13.60
2019,09,18,00,34,13.60
2019,09,18,00,35,13.60
2019,09,18,00,36,13.60
2019,09,18,00,37,13.60
2019,09,18,00,38,13.60
2019,09,18,00,39,13.60
2019,09,18,00,40,13.60
2019,09,18,00,41,13.60
2019,09,18,00,42,13.60
2019,09,18,00,43,13.60
2019,09,18,00,44,13.50
2019,09,18,00,45,13.50
2019,09,18,00,46,13.50
2019,09,18,00,47,13.50
2019,09,18,00,48,13.50
2019,09,18,00,49,13.50
2019,09,18,00,50,13.50
2019,09,18,00,51,13.50
2019,09,18,00,52,13.50
2019,09,18,00,53,13.50
2019,09,18,00,54,13.40
2019,09,18,00,55,13.40
2019,09,18,00,56,13.40
2019,09,18,00,57,13.40
2019,09,18,00,58,13.40
2019,09,18,00,59,13.40
2019,09,18,01,00,13.40
2019,09,18,01,01,13.40
2019,09,18,01,02,13.40
2019,09,18,01,03,13.40
2019,09,18,01,04,13.40
2019,09,18,01,05,13.40
2019,09,18,01,06,13.40
2019,09,18,01,07,13.40
2019,09,18,01,08,13.40
2019,09,18,01,09,13.40
2019,09,18,01,10,13.40
2019,09,18,01,11,13.40
2019,09,18,01,12,13.40
2019,09,18,01,13,13.40
2019,09,18,01,14,13.40
2019,09,18,01,15,13.40
2019,09,18,01,16,13.40
2019,09,18,01,17,13.40
2019,09,18,01,18,13.40
2019,09,18,01,19,13.40
2019,09,18,01,20,13.40
2019,09,18,01,21,13.40
2019,09,18,01,22,13.40
2019,09,18,01,23,13.40
2019,09,18,01,24,13.40
2019,09,18,01,25,13.40
2019,09,18,01,26,13.40
2019,09,18,01,27,13.40
2019,09,18,01,28,13.40
2019,09,18,01,29,13.40
2019,09,18,01,30,13.40
2019,09,18,01,31,13.40
2019,09,18,01,32,13.40
2019,09,18,01,33,13.40
2019,09,18,01,34,13.40
2019,09,18,01,35,13.40
2019,09,18,01,36,13.40
2019,09,18,01,37,13.40
2019,09,18,01,38,13.40
2019,09,18,01,39,13.40
2019,09,18,01,40,13.40
2019,09,18,01,41,13.40
2019,09,18,01,42,13.40
2019,09,18,01,43,13.40
2019,09,18,01,44,13.40
2019,09,18,01,45,13.50
2019,09,18,01,46,13.40
2019,09,18,01,47,13.50
2019,09,18,01,48,13.50
2019,09,18,01,49,13.50
2019,09,18,01,50,13.50
2019,09,18,01,51,13.50
2019,09,18,01,52,13.50
2019,09,18,01,53,13.50
2019,09,18,01,54,13.50
2019,09,18,01,55,13.50
2019,09,18,01,56,13.50
2019,09,18,01,57,13.50
2019,09,18,01,58,13.50
2019,09,18,01,59,13.50
2019,09,18,02,00,13.60
2019,09,18,02,01,13.50
2019,09,18,02,02,13.50
2019,09,18,02,03,13.60
2019,09,18,02,04,13.50
2019,09,18,02,05,13.50
2019,09,18,02,06,13.50
2019,09,18,02,07,13.50
2019,09,18,02,08,13.60
2019,09,18,02,09,13.50
2019,09,18,02,10,13.50
2019,09,18,02,11,13.50
2019,09,18,02,12,13.50
2019,09,18,02,13,13.50
2019,09,18,02,14,13.50
2019,09,18,02,15,13.50
2019,09,18,02,16,13.50
2019,09,18,02,17,13.50
2019,09,18,02,18,13.50
2019,09,18,02,19,13.50
2019,09,18,02,20,13.50
2019,09,18,02,21,13.50
2019,09,18,02,22,13.50
2019,09,18,02,23,13.50
2019,09,18,02,24,13.50
2019,09,18,02,25,13.50
2019,09,18,02,26,13.50
2019,09,18,02,27,13.50
2019,09,18,02,28,13.50
2019,09,18,02,29,13.50
2019,09,18,02,30,13.50
2019,09,18,02,31,13.50
2019,09,18,02,32,13.50
2019,09,18,02,33,13.50
2019,09,18,02,34,13.50
2019,09,18,02,35,13.50
2019,09,18,02,36,13.50
2019,09,18,02,37,13.50
2019,09,18,02,38,13.50
2019,09,18,02,39,13.50
2019,09,18,02,40,13.50
2019,09,18,02,41,13.50
2019,09,18,02,42,13.50
2019,09,18,02,43,13.50
2019,09,18,02,44,13.50
2019,09,18,02,45,13.50
2019,09,18,02,46,13.50
2019,09,18,02,47,13.50
2019,09,18,02,48,13.50
2019,09,18,02,49,13.50
2019,09,18,02,50,13.50
2019,09,18,02,51,13.50
2019,09,18,02,52,13.50
2019,09,18,02,53,13.50
2019,09,18,02,54,13.50
2019,09,18,02,55,13.50
2019,09,18,02,56,13.50
2019,09,18,02,57,13.50
2019,09,18,02,58,13.50
2019,09,18,02,59,13.50
2019,09,18,03,00,13.50
2019,09,18,03,01,13.50
2019,09,18,03,02,13.50
2019,09,18,03,03,13.50
2019,09,18,03,04,13.50
2019,09,18,03,05,13.50
2019,09,18,03,06,13.50
2019,09,18,03,07,13.50
2019,09,18,03,08,13.50
2019,09,18,03,09,13.50
2019,09,18,03,10,13.50
2019,09,18,03,11,13.50
2019,09,18,03,12,13.50
2019,09,18,03,13,13.50
2019,09,18,03,14,13.50
2019,09,18,03,15,13.50
2019,09,18,03,16,13.50
2019,09,18,03,17,13.50
2019,09,18,03,18,13.50
2019,09,18,03,19,13.50
2019,09,18,03,20,13.50
2019,09,18,03,21,13.40
2019,09,18,03,22,13.50
2019,09,18,03,23,13.40
2019,09,18,03,24,13.40
2019,09,18,03,25,13.40
2019,09,18,03,26,13.40
2019,09,18,03,27,13.40
2019,09,18,03,28,13.50
2019,09,18,03,29,13.50
2019,09,18,03,30,13.50
2019,09,18,03,31,13.50
2019,09,18,03,32,13.50
2019,09,18,03,33,13.50
2019,09,18,03,34,13.50
2019,09,18,03,35,13.50
2019,09,18,03,36,13.60
2019,09,18,03,37,13.60
2019,09,18,03,38,13.60
2019,09,18,03,39,13.60
2019,09,18,03,40,13.60
2019,09,18,03,41,13.60
2019,09,18,03,42,13.60
2019,09,18,03,43,13.60
2019,09,18,03,44,13.60
2019,09,18,03,45,13.60
2019,09,18,03,46,13.60
2019,09,18,03,47,13.60
2019,09,18,03,48,13.60
2019,09,18,03,49,13.60
2019,09,18,03,50,13.60
2019,09,18,03,51,13.60
2019,09,18,03,52,13.60
2019,09,18,03,53,13.60
2019,09,18,03,54,13.60
2019,09,18,03,55,13.60
2019,09,18,03,56,13.50
2019,09,18,03,57,13.50
2019,09,18,03,58,13.50
2019,09,18,03,59,13.50
2019,09,18,04,00,13.50
2019,09,18,04,01,13.50
2019,09,18,04,02,13.50
2019,09,18,04,03,13.50
2019,09,18,04,04,13.50
2019,09,18,04,05,13.50
2019,09,18,04,06,13.50
2019,09,18,04,07,13.50
2019,09,18,04,08,13.50
2019,09,18,04,09,13.50
2019,09,18,04,10,13.50
2019,09,18,04,11,13.50
2019,09,18,04,12,13.50
2019,09,18,04,13,13.60
2019,09,18,04,14,13.60
2019,09,18,04,15,13.60
2019,09,18,04,16,13.60
2019,09,18,04,17,13.60
2019,09,18,04,18,13.60
2019,09,18,04,19,13.60
2019,09,18,04,20,13.60
2019,09,18,04,21,13.60
2019,09,18,04,22,13.60
2019,09,18,04,23,13.50
2019,09,18,04,24,13.60
2019,09,18,04,25,13.60
2019,09,18,04,26,13.60
2019,09,18,04,27,13.50
2019,09,18,04,28,13.50
2019,09,18,04,29,13.50
2019,09,18,04,30,13.50
2019,09,18,04,31,13.50
2019,09,18,04,32,13.50
2019,09,18,04,33,13.50
2019,09,18,04,34,13.50
2019,09,18,04,35,13.50
2019,09,18,04,36,13.50
2019,09,18,04,37,13.50
2019,09,18,08,00,13.60
2019,09,18,08,01,13.60
2019,09,18,08,02,13.60
2019,09,18,08,03,13.60
2019,09,18,08,04,13.60
2019,09,18,08,05,13.60
2019,09,18,08,06,13.60
2019,09,18,08,07,13.60
2019,09,18,08,08,13.60
2019,09,18,08,09,13.60
2019,09,18,08,10,13.60
2019,09,18,08,11,13.60
2019,09,18,08,12,13.60
2019,09,18,08,13,13.60
2019,09,18,08,14,13.60
2019,09,18,08,15,13.60
2019,09,18,08,16,13.60
2019,09,18,08,17,13.60
2019,09,18,08,18,13.60
2019,09,18,08,19,13.60
2019,09,18,08,20,13.60
2019,09,18,08,21,13.60
2019,09,18,08,22,13.60
2019,09,18,08,23,13.60
2019,09,18,08,24,13.60
2019,09,18,08,25,13.60
2019,09,18,08,26,13.60
2019,09,18,08,27,13.60
2019,09,18,08,28,13.60
2019,09,18,08,29,13.60
2019,09,18,08,30,13.60
2019,09,18,08,31,13.70
2019,09,18,08,32,13.70
2019,09,18,08,33,13.70
2019,09,18,08,34,13.70
2019,09,18,08,35,13.70
2019,09,18,08,36,13.70
2019,09,18,08,37,13.70
2019,09,18,08,38,13.70
2019,09,18,08,39,13.70
2019,09,18,08,40,13.70
2019,09,18,08,41,13.70
2019,09,18,08,42,13.70
2019,09,18,08,43,13.70
2019,09,18,08,44,13.70
2019,09,18,08,45,13.70
2019,09,18,08,46,13.70
2019,09,18,08,47,13.80
2019,09,18,08,48,13.80
2019,09,18,08,49,13.80
2019,09,18,08,50,13.80
2019,09,18,08,51,13.80
2019,09,18,08,52,13.80
2019,09,18,08,53,13.80
2019,09,18,08,54,13.80
2019,09,18,08,55,13.90
2019,09,18,08,56,13.90
2019,09,18,08,57,13.90
2019,09,18,08,58,13.90
2019,09,18,08,59,14.00
2019,09,18,09,00,14.00
2019,09,18,09,01,14.10
2019,09,18,09,02,14.10
2019,09,18,09,03,14.10
2019,09,18,09,04,14.10
2019,09,18,09,05,14.10
2019,09,18,09,06,14.20
2019,09,18,09,07,14.20
2019,09,18,09,08,14.20
2019,09,18,09,09,14.30
2019,09,18,09,10,14.30
2019,09,18,09,11,14.30
2019,09,18,09,12,14.30
2019,09,18,09,13,14.40
2019,09,18,09,14,14.50
2019,09,18,09,15,14.50
2019,09,18,09,16,14.60
2019,09,18,09,17,14.60
2019,09,18,09,18,14.60
2019,09,18,09,19,14.70
2019,09,18,09,20,14.70
2019,09,18,09,21,14.70
2019,09,18,09,22,14.70
2019,09,18,09,23,14.80
2019,09,18,09,24,14.80
2019,09,18,09,25,14.80
2019,09,18,09,26,14.80
2019,09,18,09,27,14.80
2019,09,18,09,28,14.80
2019,09,18,09,29,14.80
2019,09,18,09,30,14.90
2019,09,18,09,31,14.90
2019,09,18,09,32,14.90
2019,09,18,09,33,14.90
2019,09,18,09,34,14.90
2019,09,18,09,35,14.90
2019,09,18,09,36,14.90
2019,09,18,09,37,14.90
2019,09,18,09,38,14.90
2019,09,18,09,39,15.00
2019,09,18,09,40,15.00
2019,09,18,09,41,15.00
2019,09,18,09,42,15.00
2019,09,18,09,43,15.00
2019,09,18,09,44,15.00
2019,09,18,09,45,15.00
2019,09,18,09,46,15.00
2019,09,18,09,47,15.00
2019,09,18,09,48,14.90
2019,09,18,09,49,14.90
2019,09,18,09,50,14.90
2019,09,18,09,51,14.90
2019,09,18,09,52,14.90
2019,09,18,09,53,14.90
2019,09,18,09,54,15.00
2019,09,18,09,55,15.00
2019,09,18,09,56,15.00
2019,09,18,09,57,15.00
2019,09,18,09,58,15.00
2019,09,18,09,59,15.00
2019,09,18,10,00,15.00
2019,09,18,10,01,14.90
2019,09,18,10,02,15.00
2019,09,18,10,03,15.00
2019,09,18,10,04,15.00
2019,09,18,10,05,15.00
2019,09,18,10,06,15.00
2019,09,18,10,07,15.00
2019,09,18,10,08,15.00
2019,09,18,10,09,15.00
2019,09,18,10,10,15.00
2019,09,18,10,11,15.00
2019,09,18,10,12,15.00
2019,09,18,10,13,15.00
2019,09,18,10,14,15.00
2019,09,18,10,15,15.00
2019,09,18,10,16,15.00
2019,09,18,10,17,15.00
2019,09,18,10,18,15.00
2019,09,18,10,19,15.00
2019,09,18,10,20,15.00
2019,09,18,10,21,15.00
2019,09,18,10,22,15.00
2019,09,18,10,23,15.00
2019,09,18,10,24,15.00
2019,09,18,10,25,15.00
2019,09,18,10,26,15.00
2019,09,18,10,27,15.10
2019,09,18,10,28,15.10
2019,09,18,10,29,15.10
2019,09,18,10,30,15.10
2019,09,18,10,31,15.10
2019,09,18,10,32,15.10
2019,09,18,10,33,15.10
2019,09,18,10,34,15.20
2019,09,18,10,35,15.20
2019,09,18,10,36,15.20
2019,09,18,10,37,15.20
2019,09,18,10,38,15.20
2019,09,18,10,39,15.20
2019,09,18,10,40,15.30
2019,09,18,10,41,15.30
2019,09,18,10,42,15.20
2019,09,18,10,43,15.20
2019,09,18,10,44,15.20
2019,09,18,10,45,15.20
2019,09,18,10,46,15.20
2019,09,18,10,47,15.20
2019,09,18,10,48,15.20
2019,09,18,10,49,15.20
2019,09,18,10,50,15.20
2019,09,18,10,51,15.20
2019,09,18,10,52,15.20
2019,09,18,10,53,15.10
2019,09,18,10,54,15.20
2019,09,18,10,55,15.10
2019,09,18,10,56,15.10
2019,09,18,10,57,15.10
2019,09,18,10,58,15.10
2019,09,18,10,59,15.20
2019,09,18,11,00,15.20
2019,09,18,11,01,15.20
2019,09,18,11,02,15.20
2019,09,18,11,03,15.20
2019,09,18,11,04,15.20
2019,09,18,11,05,15.20
2019,09,18,11,06,15.20
2019,09,18,11,07,15.30
2019,09,18,11,08,15.30
2019,09,18,11,09,15.30
2019,09,18,11,10,15.30
2019,09,18,11,11,15.30
2019,09,18,11,12,15.30
2019,09,18,11,13,15.30
2019,09,18,11,14,15.30
2019,09,18,11,15,15.30
2019,09,18,11,16,15.40
2019,09,18,11,17,15.40
2019,09,18,11,18,15.50
2019,09,18,11,19,15.50
2019,09,18,11,20,15.50
2019,09,18,11,21,15.50
2019,09,18,11,22,15.60
2019,09,18,11,23,15.60
2019,09,18,11,24,15.60
2019,09,18,11,25,15.60
2019,09,18,11,26,15.70
2019,09,18,11,27,15.70
2019,09,18,11,28,15.70
2019,09,18,11,29,15.70
2019,09,18,11,30,15.70
2019,09,18,11,31,15.70
2019,09,18,11,32,15.80
2019,09,18,11,33,15.80
2019,09,18,11,34,15.80
2019,09,18,11,35,15.80
2019,09,18,11,36,15.80
2019,09,18,11,37,15.90
2019,09,18,11,38,15.90
2019,09,18,11,39,15.90
2019,09,18,11,40,15.90
2019,09,18,11,41,15.90
2019,09,18,11,42,15.90
2019,09,18,11,43,15.90
2019,09,18,11,44,16.00
2019,09,18,11,45,16.00
2019,09,18,11,46,16.00
2019,09,18,11,47,16.10
2019,09,18,11,48,16.10
2019,09,18,11,49,16.10
2019,09,18,11,50,16.10
2019,09,18,11,51,16.20
2019,09,18,11,52,16.20
2019,09,18,11,53,16.20
2019,09,18,11,54,16.20
2019,09,18,11,55,16.30
2019,09,18,11,56,16.30
2019,09,18,11,57,16.30
2019,09,18,11,58,16.40
2019,09,18,11,59,16.30
2019,09,18,12,00,16.30
2019,09,18,12,01,16.30
2019,09,18,12,02,16.30
2019,09,18,12,03,16.30
2019,09,18,12,04,16.30
2019,09,18,12,05,16.30
2019,09,18,12,06,16.30
2019,09,18,12,07,16.40
2019,09,18,12,08,16.40
2019,09,18,12,09,16.40
2019,09,18,12,10,16.40
2019,09,18,12,11,16.40
2019,09,18,12,12,16.50
2019,09,18,12,13,16.50
2019,09,18,12,14,16.50
2019,09,18,12,15,16.50
2019,09,18,12,16,16.50
2019,09,18,12,17,16.60
2019,09,18,12,18,16.60
2019,09,18,12,19,16.70
2019,09,18,12,20,16.70
2019,09,18,12,21,16.70
2019,09,18,12,22,16.70
2019,09,18,12,23,16.70
2019,09,18,12,24,16.70
2019,09,18,12,25,16.70
2019,09,18,12,26,16.70
2019,09,18,12,27,16.60
2019,09,18,12,28,16.60
2019,09,18,12,29,16.60
2019,09,18,12,30,16.60
2019,09,18,12,31,16.60
2019,09,18,12,32,16.70
2019,09,18,12,33,16.70
2019,09,18,12,34,16.70
2019,09,18,12,35,16.70
2019,09,18,12,36,16.70
2019,09,18,12,37,16.70
2019,09,18,12,38,16.70
2019,09,18,12,39,16.70
2019,09,18,12,40,16.80
2019,09,18,12,41,16.80
2019,09,18,12,42,16.80
2019,09,18,12,43,16.80
2019,09,18,12,44,16.80
2019,09,18,12,45,16.80
2019,09,18,12,46,16.80
2019,09,18,12,47,16.80
2019,09,18,12,48,16.80
2019,09,18,12,49,16.70
2019,09,18,12,50,16.70
2019,09,18,12,51,16.70
2019,09,18,12,52,16.70
2019,09,18,12,53,16.70
2019,09,18,12,54,16.70
2019,09,18,12,55,16.70
2019,09,18,12,56,16.70
2019,09,18,12,57,16.70
2019,09,18,12,58,16.70
2019,09,18,12,59,16.70
2019,09,18,13,00,16.70
2019,09,18,13,01,16.70
2019,09,18,13,02,16.70
2019,09,18,13,03,16.70
2019,09,18,13,04,16.70
2019,09,18,13,05,16.70
2019,09,18,13,06,16.70
2019,09,18,13,07,16.80
2019,09,18,13,08,16.80
2019,09,18,13,09,16.80
2019,09,18,13,10,16.80
2019,09,18,13,11,16.80
2019,09,18,13,12,16.90
2019,09,18,13,13,16.90
2019,09,18,13,14,16.90
2019,09,18,13,15,16.90
2019,09,18,13,16,17.00
2019,09,18,13,17,17.00
2019,09,18,13,18,16.90
2019,09,18,13,19,16.90
2019,09,18,13,20,16.90
2019,09,18,13,21,17.00
2019,09,18,13,22,17.00
2019,09,18,13,23,17.10
2019,09,18,13,24,17.10
2019,09,18,13,25,17.10
2019,09,18,13,26,17.10
2019,09,18,13,27,17.10
2019,09,18,13,28,17.10
2019,09,18,13,29,17.10
2019,09,18,13,30,17.10
2019,09,18,13,31,17.10
2019,09,18,13,32,17.10
2019,09,18,13,33,17.10
2019,09,18,13,34,17.10
2019,09,18,13,35,17.10
2019,09,18,13,36,17.10
2019,09,18,13,37,17.10
2019,09,18,13,38,17.20
2019,09,18,13,39,17.20
2019,09,18,13,40,17.30
2019,09,18,13,41,17.30
2019,09,18,13,42,17.30
2019,09,18,13,43,17.20
2019,09,18,13,44,17.30
2019,09,18,13,45,17.30
2019,09,18,13,46,17.30
2019,09,18,13,47,17.30
2019,09,18,13,48,17.30
2019,09,18,13,49,17.30
2019,09,18,13,50,17.20
2019,09,18,13,51,17.30
2019,09,18,13,52,17.30
2019,09,18,13,53,17.30
2019,09,18,13,54,17.30
2019,09,18,13,55,17.20
2019,09,18,13,56,17.10
2019,09,18,13,57,17.00
2019,09,18,13,58,16.90
2019,09,18,13,59,16.70
2019,09,18,14,00,16.60
2019,09,18,14,01,16.50
2019,09,18,14,02,16.40
2019,09,18,14,03,16.40
2019,09,18,14,04,16.40
2019,09,18,14,05,16.30
2019,09,18,14,06,16.30
2019,09,18,14,07,16.20
2019,09,18,14,08,16.20
2019,09,18,14,09,16.20
2019,09,18,14,10,16.10
2019,09,18,14,11,16.10
2019,09,18,14,12,16.10
2019,09,18,14,13,16.10
2019,09,18,14,14,16.10
2019,09,18,14,15,16.10
2019,09,18,14,16,16.10
2019,09,18,14,17,16.00
2019,09,18,14,18,16.00
2019,09,18,14,19,16.00
2019,09,18,14,20,16.00
2019,09,18,14,21,15.90
2019,09,18,14,22,15.90
2019,09,18,14,23,15.80
2019,09,18,14,24,15.80
2019,09,18,14,25,15.80
2019,09,18,14,26,15.70
2019,09,18,14,27,15.70
2019,09,18,14,28,15.70
2019,09,18,14,29,15.70
2019,09,18,14,30,15.70
2019,09,18,14,31,15.70
2019,09,18,14,32,15.70
2019,09,18,14,33,15.60
2019,09,18,14,34,15.60
2019,09,18,14,35,15.60
2019,09,18,14,36,15.60
2019,09,18,14,37,15.60
2019,09,18,14,38,15.60
2019,09,18,14,39,15.60
2019,09,18,14,40,15.50
2019,09,18,14,41,15.40
2019,09,18,14,42,15.30
2019,09,18,14,43,15.30
2019,09,18,14,44,15.30
2019,09,18,14,45,15.20
2019,09,18,14,46,15.20
2019,09,18,14,47,15.10
2019,09,18,14,48,15.00
2019,09,18,14,49,15.00
2019,09,18,14,50,14.90
2019,09,18,14,51,14.90
2019,09,18,14,52,14.80
2019,09,18,14,53,14.80
2019,09,18,14,54,14.80
2019,09,18,14,55,14.80
2019,09,18,14,56,14.80
2019,09,18,14,57,14.80
2019,09,18,14,58,14.80
2019,09,18,14,59,14.80
2019,09,18,15,00,14.80
2019,09,18,15,01,14.80
2019,09,18,15,02,14.80
2019,09,18,15,03,14.80
2019,09,18,15,04,14.90
2019,09,18,15,05,14.90
2019,09,18,15,06,14.90
2019,09,18,15,07,14.90
2019,09,18,15,08,14.90
2019,09,18,15,09,14.90
2019,09,18,15,10,14.90
2019,09,18,15,11,14.90
2019,09,18,15,12,14.90
2019,09,18,15,13,14.90
2019,09,18,15,14,14.90
2019,09,18,15,15,14.90
2019,09,18,15,16,14.90
2019,09,18,15,17,14.90
2019,09,18,15,18,14.90
2019,09,18,15,19,14.90
2019,09,18,15,20,14.80
2019,09,18,15,21,14.80
2019,09,18,15,22,14.80
2019,09,18,15,23,14.80
2019,09,18,15,24,14.70
2019,09,18,15,25,14.70
2019,09,18,15,26,14.70
2019,09,18,15,27,14.70
2019,09,18,15,28,14.80
2019,09,18,15,29,14.80
2019,09,18,15,30,14.80
2019,09,18,15,31,14.80
2019,09,18,15,32,14.90
2019,09,18,15,33,14.90
2019,09,18,15,34,15.00
2019,09,18,15,35,14.90
2019,09,18,15,36,14.90
2019,09,18,15,37,14.90
2019,09,18,15,38,14.90
2019,09,18,15,39,14.90
2019,09,18,15,40,14.90
2019,09,18,15,41,15.00
2019,09,18,15,42,15.00
2019,09,18,15,43,15.00
2019,09,18,15,44,15.10
2019,09,18,15,45,15.10
2019,09,18,15,46,15.10
2019,09,18,15,47,15.10
2019,09,18,15,48,15.10
2019,09,18,15,49,15.10
2019,09,18,15,50,15.20
2019,09,18,15,51,15.20
2019,09,18,15,52,15.20
2019,09,18,15,53,15.20
2019,09,18,15,54,15.20
2019,09,18,15,55,15.20
2019,09,18,15,56,15.20
2019,09,18,15,57,15.20
2019,09,18,15,58,15.20
2019,09,18,15,59,15.20
2019,09,18,16,00,15.10
2019,09,18,16,01,15.20
2019,09,18,16,02,15.20
2019,09,18,16,03,15.20
2019,09,18,16,04,15.20
2019,09,18,16,05,15.20
2019,09,18,16,06,15.20
2019,09,18,16,07,15.30
2019,09,18,16,08,15.30
2019,09,18,16,09,15.30
2019,09,18,16,10,15.30
2019,09,18,16,11,15.30
2019,09,18,16,12,15.30
2019,09,18,16,13,15.30
2019,09,18,16,14,15.30
2019,09,18,16,15,15.30
2019,09,18,16,16,15.30
2019,09,18,16,17,15.30
2019,09,18,16,18,15.30
2019,09,18,16,19,15.30
2019,09,18,16,20,15.30
2019,09,18,16,21,15.30
2019,09,18,16,22,15.40
2019,09,18,16,23,15.40
2019,09,18,16,24,15.40
2019,09,18,16,25,15.50
2019,09,18,16,26,15.50
2019,09,18,16,27,15.50
2019,09,18,16,28,15.50
2019,09,18,16,29,15.50
2019,09,18,16,30,15.50
2019,09,18,16,31,15.50
2019,09,18,16,32,15.50
2019,09,18,16,33,15.50
2019,09,18,16,34,15.40
2019,09,18,16,35,15.50
2019,09,18,16,36,15.50
2019,09,18,16,37,15.50
2019,09,18,16,38,15.60
2019,09,18,16,39,15.60
2019,09,18,16,40,15.60
2019,09,18,16,41,15.60
2019,09,18,16,42,15.70
2019,09,18,16,43,15.70
2019,09,18,16,44,15.70
2019,09,18,16,45,15.70
2019,09,18,16,46,15.70
2019,09,18,16,47,15.70
2019,09,18,16,48,15.70
2019,09,18,16,49,15.70
2019,09,18,16,50,15.70
2019,09,18,16,51,15.80
2019,09,18,16,52,15.80
2019,09,18,16,53,15.70
2019,09,18,16,54,15.70
2019,09,18,16,55,15.70
2019,09,18,16,56,15.70
2019,09,18,16,57,15.60
2019,09,18,16,58,15.60
2019,09,18,16,59,15.60
2019,09,18,17,00,15.60
2019,09,18,17,01,15.60
2019,09,18,17,02,15.60
2019,09,18,17,03,15.50
2019,09,18,17,04,15.50
2019,09,18,17,05,15.40
2019,09,18,17,06,15.40
2019,09,18,17,07,15.40
2019,09,18,17,08,15.40
2019,09,18,17,09,15.40
2019,09,18,17,10,15.40
2019,09,18,17,11,15.40
2019,09,18,17,12,15.40
2019,09,18,17,13,15.40
2019,09,18,17,14,15.40
2019,09,18,17,15,15.40
2019,09,18,17,16,15.50
2019,09,18,17,17,15.50
2019,09,18,17,18,15.50
2019,09,18,17,19,15.50
2019,09,18,17,20,15.50
2019,09,18,17,21,15.50
2019,09,18,17,22,15.50
2019,09,18,17,23,15.50
2019,09,18,17,24,15.50
2019,09,18,17,25,15.50
2019,09,18,17,26,15.50
2019,09,18,17,27,15.60
2019,09,18,17,28,15.60
2019,09,18,17,29,15.60
2019,09,18,17,30,15.60
2019,09,18,17,31,15.60
2019,09,18,17,32,15.60
2019,09,18,17,33,15.60
2019,09,18,17,34,15.60
2019,09,18,17,35,15.60
2019,09,18,17,36,15.50
2019,09,18,17,37,15.50
2019,09,18,17,38,15.60
2019,09,18,17,39,15.60
2019,09,18,17,40,15.60
2019,09,18,17,41,15.60
2019,09,18,17,42,15.60
2019,09,18,17,43,15.60
2019,09,18,17,44,15.60
2019,09,18,17,45,15.60
2019,09,18,17,46,15.60
2019,09,18,17,47,15.70
2019,09,18,17,48,15.70
2019,09,18,17,49,15.70
2019,09,18,17,50,15.70
2019,09,18,17,51,15.70
2019,09,18,17,52,15.70
2019,09,18,17,53,15.70
2019,09,18,17,54,15.70
2019,09,18,17,55,15.70
2019,09,18,17,56,15.80
2019,09,18,17,57,15.80
2019,09,18,17,58,15.80
2019,09,18,17,59,15.80
2019,09,18,18,00,15.80
2019,09,18,18,01,15.80
2019,09,18,18,02,15.80
2019,09,18,18,03,15.80
2019,09,18,18,04,15.80
2019,09,18,18,05,15.80
2019,09,18,18,06,15.80
2019,09,18,18,07,15.80
2019,09,18,18,08,15.80
2019,09,18,18,09,15.80
2019,09,18,18,10,15.80
2019,09,18,18,11,15.80
2019,09,18,18,12,15.80
2019,09,18,18,13,15.80
2019,09,18,18,14,15.80
2019,09,18,18,15,15.80
2019,09,18,18,16,15.80
2019,09,18,18,17,15.80
2019,09,18,18,18,15.80
2019,09,18,18,19,15.80
2019,09,18,18,20,15.80
2019,09,18,18,21,15.80
2019,09,18,18,22,15.80
2019,09,18,18,23,15.80
2019,09,18,18,24,15.80
2019,09,18,18,25,15.80
2019,09,18,18,26,15.80
2019,09,18,18,27,15.80
2019,09,18,18,28,15.80
2019,09,18,18,29,15.80
2019,09,18,18,30,15.80
2019,09,18,18,31,15.80
2019,09,18,18,32,15.80
2019,09,18,18,33,15.80
2019,09,18,18,34,15.80
2019,09,18,18,35,15.80
2019,09,18,18,36,15.80
2019,09,18,18,37,15.80
2019,09,18,18,38,15.80
2019,09,18,18,39,15.80
2019,09,18,18,40,15.80
2019,09,18,18,41,15.80
2019,09,18,18,42,15.80
2019,09,18,18,43,15.70
2019,09,18,18,44,15.70
2019,09,18,18,45,15.70
2019,09,18,18,46,15.60
2019,09,18,18,47,15.60
2019,09,18,18,48,15.60
2019,09,18,18,49,15.60
2019,09,18,18,50,15.50
2019,09,18,18,51,15.50
2019,09,18,18,52,15.50
2019,09,18,18,53,15.50
2019,09,18,18,54,15.40
2019,09,18,18,55,15.40
2019,09,18,18,56,15.40
2019,09,18,18,57,15.40
2019,09,18,18,58,15.40
2019,09,18,18,59,15.40
2019,09,18,19,00,15.30
2019,09,18,19,01,15.30
2019,09,18,19,02,15.30
2019,09,18,19,03,15.30
2019,09,18,19,04,15.30
2019,09,18,19,05,15.30
2019,09,18,19,06,15.20
2019,09,18,19,07,15.20
2019,09,18,19,08,15.20
2019,09,18,19,09,15.10
2019,09,18,19,10,15.00
2019,09,18,19,11,15.00
2019,09,18,19,12,15.00
2019,09,18,19,13,15.00
2019,09,18,19,14,14.90
2019,09,18,19,15,14.90
2019,09,18,19,16,14.90
2019,09,18,19,17,14.90
2019,09,18,19,18,14.90
2019,09,18,19,19,14.80
2019,09,18,19,20,14.80
2019,09,18,19,21,14.80
2019,09,18,19,22,14.80
2019,09,18,19,23,14.80
2019,09,18,19,24,14.80
2019,09,18,19,25,14.90
2019,09,18,19,26,14.90
2019,09,18,19,27,14.90
2019,09,18,19,28,14.90
2019,09,18,19,29,14.90
2019,09,18,19,30,14.90
2019,09,18,19,31,14.90
2019,09,18,19,32,14.90
2019,09,18,19,33,14.90
2019,09,18,19,34,14.90
2019,09,18,19,35,14.90
2019,09,18,19,36,14.90
2019,09,18,19,37,14.90
2019,09,18,19,38,14.90
2019,09,18,19,39,14.90
2019,09,18,19,40,14.90
2019,09,18,19,41,14.90
2019,09,18,19,42,14.90
2019,09,18,19,43,14.90
2019,09,18,19,44,14.90
2019,09,18,19,45,15.00
2019,09,18,19,46,15.00
2019,09,18,19,47,15.00
2019,09,18,19,48,15.00
2019,09,18,19,49,15.00
2019,09,18,19,50,15.00
2019,09,18,19,51,15.10
2019,09,18,19,52,15.10
2019,09,18,19,53,15.10
2019,09,18,19,54,15.10
2019,09,18,19,55,15.10
2019,09,18,19,56,15.00
2019,09,18,19,57,15.00
2019,09,18,19,58,15.00
2019,09,18,19,59,15.00
2019,09,18,20,00,15.00
2019,09,18,20,01,14.90
2019,09,18,20,02,14.90
2019,09,18,20,03,14.90
2019,09,18,20,04,14.90
2019,09,18,20,05,14.80
2019,09,18,20,06,14.80
2019,09,18,20,07,14.80
2019,09,18,20,08,14.80
2019,09,18,20,09,14.70
2019,09,18,20,10,14.70
2019,09,18,20,11,14.70
2019,09,18,20,12,14.70
2019,09,18,20,13,14.70
2019,09,18,20,14,14.70
2019,09,18,20,15,14.70
2019,09,18,20,16,14.70
2019,09,18,20,17,14.70
2019,09,18,20,18,14.70
2019,09,18,20,19,14.70
2019,09,18,20,20,14.70
2019,09,18,20,21,14.70
2019,09,18,20,22,14.70
2019,09,18,20,23,14.60
2019,09,18,20,24,14.60
2019,09,18,20,25,14.60
2019,09,18,20,26,14.60
2019,09,18,20,27,14.60
2019,09,18,20,28,14.60
2019,09,18,20,29,14.50
2019,09,18,20,30,14.50
2019,09,18,20,31,14.50
2019,09,18,20,32,14.50
2019,09,18,20,33,14.50
2019,09,18,20,34,14.50
2019,09,18,20,35,14.50
2019,09,18,20,36,14.50
2019,09,18,20,37,14.40
2019,09,18,20,38,14.40
2019,09,18,20,39,14.40
2019,09,18,20,40,14.50
2019,09,18,20,41,14.40